Simultaneous Nadir Overpasses (SNOs) Predictions

Prediction of SNOs between METOP-B and NOAA-19 Satellite Orbit:

Table of predicted SNOs for the next 14.0 days since TLE Epoch: 6/29/2024
Index Date (METOP-B) Time (METOP-B) Lat,Lon (METOP-B) SZA (METOP-B ) Date (NOAA-19) Time (NOAA-19) Lat,Lon (NOAA-19) SZA (NOAA-19 ) Distance(km) Time Diff (sec)
1 07/01/2024 05:45:09 -57.47,-112.23 140.60 07/01/2024 05:44:05 -57.46,-112.24 140.51 0.70 64
2 07/01/2024 06:35:07 59.76, 56.59 40.74 07/01/2024 06:34:25 59.74, 56.56 40.80 2.83 42
3 07/01/2024 07:25:07 -62.18,-134.29 137.74 07/01/2024 07:24:38 -62.20,-134.27 137.70 2.04 29
4 07/01/2024 08:15:17 63.79, 34.40 43.32 07/01/2024 08:15:10 63.78, 34.38 43.32 1.49 7
5 07/01/2024 09:05:35 -65.16,-157.00 135.74 07/01/2024 09:05:42 -65.15,-157.01 135.76 1.17 7
6 07/01/2024 09:55:42 66.92, 12.18 45.50 07/01/2024 09:56:10 66.92, 12.19 45.49 0.59 28
7 07/01/2024 10:46:06 -67.93,-179.31 133.76 07/01/2024 10:46:48 -67.95,-179.27 133.78 2.48 42



Historial Predications of SNOs between METOP-B and NOAA-19
